,,Stat6,,Stat2,,Stat8,,Stat9,,Stat10,,Wind1,,Wind1,
time,status,PA1M_AVG,status,PR1M_SUM,status,RH1M_AVG,status,SR1M_AVG,status,TA1M_AVG,status,W1dAve1m,status,W1sAve1m,
2005-03-25, 10:02:00,VALID,917.933,VALID,0,VALID,72.4242,VALID,199.151,VALID,25.8076,VALID,228,VALID,0.588956,
2005-03-25, 10:03:00,VALID,917.914,VALID,0,VALID,73.1986,VALID,543.251,VALID,25.5981,VALID,246,VALID,0.956473,
2005-03-25, 10:04:00,VALID,917.913,VALID,0,VALID,73.5598,VALID,587.774,VALID,25.3276,VALID,243,VALID,1.02433,
2005-03-25, 10:05:00,VALID,917.905,VALID,0,VALID,74.6597,VALID,175.87,VALID,25.2057,VALID,242,VALID,0.840511,
2005-03-25, 10:06:00,VALID,917.884,VALID,0,VALID,75.3705,VALID,147.495,VALID,25.1275,VALID,253,VALID,0.651867,
2005-03-25, 10:07:00,VALID,917.864,VALID,0,VALID,75.106,VALID,137.952,VALID,25.0493,VALID,225,VALID,0.265957,
2005-03-25, 10:08:00,VALID,917.852,VALID,0,VALID,75.3019,VALID,127.051,VALID,25.0655,VALID,225,VALID,0.00130208,
2005-03-25, 10:09:00,VALID,917.836,VALID,0,VALID,76.2352,VALID,333.911,VALID,25.1695,VALID,223,VALID,0.0970982,
2005-03-25, 10:10:00,VALID,917.827,VALID,0,VALID,75.6681,VALID,494.261,VALID,25.3638,VALID,171,VALID,0.300391,
2005-03-25, 10:11:00,VALID,917.821,VALID,0,VALID,75.3718,VALID,496.112,VALID,25.5218,VALID,120,VALID,0.375744,
2005-03-25, 10:12:00,VALID,917.82,VALID,0,VALID,74.8301,VALID,791.561,VALID,25.687,VALID,120,VALID,0.179688,
2005-03-25, 10:13:00,VALID,917.808,VALID,0,VALID,74.4804,VALID,779.658,VALID,25.8813,VALID,214,VALID,0.7587,
2005-03-25, 10:14:00,VALID,917.796,VALID,0,VALID,74.483,VALID,789.065,VALID,25.8619,VALID,291,VALID,0.634487,
2005-03-25, 10:15:00,VALID,917.791,VALID,0,VALID,73.7925,VALID,764.188,VALID,26.0361,VALID,263,VALID,0.852471,
2005-03-25, 10:16:00,VALID,917.772,VALID,0,VALID,72.1623,VALID,799.95,VALID,26.0138,VALID,268,VALID,0.777253,
2005-03-25, 10:17:00,VALID,917.746,VALID,0,VALID,72.4611,VALID,803.669,VALID,26.0044,VALID,258,VALID,0.869048,
2005-03-25, 10:18:00,VALID,917.74,VALID,0,VALID,72.1559,VALID,786.043,VALID,26.0494,VALID,257,VALID,0.65439,
2005-03-25, 10:19:00,VALID,917.697,VALID,0,VALID,71.6486,VALID,788.488,VALID,26.2071,VALID,230,VALID,0.405297,
2005-03-25, 10:20:00,VALID,917.666,VALID,0,VALID,70.9924,VALID,782.426,VALID,26.3752,VALID,300,VALID,0.851749,
2005-03-25, 10:21:00,VALID,917.659,VALID,0,VALID,69.6102,VALID,790.61,VALID,26.285,VALID,297,VALID,0.489879,
2005-03-25, 10:22:00,VALID,917.625,VALID,0,VALID,70.5601,VALID,806.522,VALID,26.3591,VALID,285,VALID,0.610828,
2005-03-25, 10:23:00,VALID,917.598,VALID,0,VALID,70.7419,VALID,825.727,VALID,26.4687,VALID,274,VALID,0.428013,
2005-03-25, 10:24:00,VALID,917.583,VALID,0,VALID,70.9174,VALID,841.332,VALID,26.6982,VALID,251,VALID,0.597479,
2005-03-25, 10:25:00,VALID,917.581,VALID,0,VALID,68.9528,VALID,834.166,VALID,26.8146,VALID,337,VALID,0.789789,
2005-03-25, 10:26:00,VALID,917.569,VALID,0,VALID,68.4365,VALID,842.368,VALID,27.0413,VALID,327,VALID,0.690044,
2005-03-25, 10:27:00,VALID,917.564,VALID,0,VALID,69.909,VALID,670.743,VALID,26.908,VALID,301,VALID,0.882102,
2005-03-25, 10:28:00,VALID,917.568,VALID,0,VALID,69.4652,VALID,617.881,VALID,26.9446,VALID,238,VALID,0.914249,
2005-03-25, 10:29:00,VALID,917.543,VALID,0,VALID,69.0367,VALID,872.781,VALID,26.8728,VALID,236,VALID,0.515443,
2005-03-25, 10:30:00,VALID,917.548,VALID,0,VALID,70.7444,VALID,845.391,VALID,27.0212,VALID,231,VALID,0.477706,
2005-03-25, 10:31:00,VALID,917.544,VALID,0,VALID,70.48,VALID,865.054,VALID,27.1951,VALID,250,VALID,0.891493,
2005-03-25, 10:32:00,VALID,917.534,VALID,0,VALID,69.2262,VALID,875.124,VALID,27.0406,VALID,247,VALID,1.37444,
2005-03-25, 10:33:00,VALID,917.525,VALID,0,VALID,69.7551,VALID,886.518,VALID,26.8168,VALID,244,VALID,0.958676,
2005-03-25, 10:34:00,VALID,917.525,VALID,0,VALID,69.9472,VALID,900.426,VALID,26.793,VALID,237,VALID,1.26265,
2005-03-25, 10:35:00,VALID,917.505,VALID,0,VALID,70.0947,VALID,770.488,VALID,26.9411,VALID,191,VALID,0.803735,
2005-03-25, 10:36:00,VALID,917.501,VALID,0,VALID,69.3241,VALID,256.105,VALID,27.0193,VALID,225,VALID,1.34141,
2005-03-25, 10:37:00,VALID,917.51,VALID,0,VALID,68.9782,VALID,397.708,VALID,26.8311,VALID,199,VALID,1.27439,
2005-03-25, 10:38:00,VALID,917.517,VALID,0,VALID,68.1262,VALID,581.118,VALID,26.7894,VALID,194,VALID,1.14267,
2005-03-25, 10:39:00,VALID,917.518,VALID,0,VALID,68.6603,VALID,942.453,VALID,26.9029,VALID,200,VALID,0.778963,
2005-03-25, 10:40:00,VALID,917.512,VALID,0,VALID,67.3594,VALID,927.51,VALID,27.2421,VALID,187,VALID,0.622997,
2005-03-25, 10:41:00,VALID,917.517,VALID,0,VALID,66.3256,VALID,615.182,VALID,27.35,VALID,213,VALID,0.725419,
2005-03-25, 10:42:00,VALID,917.506,VALID,0,VALID,66.5838,VALID,276.006,VALID,27.243,VALID,225,VALID,0.609375,
2005-03-25, 10:43:00,VALID,917.506,VALID,0,VALID,67.2323,VALID,272.237,VALID,27.1495,VALID,199,VALID,0.295099,
2005-03-25, 10:44:00,VALID,917.503,VALID,0,VALID,67.6519,VALID,426.423,VALID,27.1974,VALID,185,VALID,0.387277,
2005-03-25, 10:45:00,VALID,917.495,VALID,0,VALID,67.5731,VALID,208.117,VALID,27.2271,VALID,222,VALID,0.466518,
2005-03-25, 10:46:00,VALID,917.489,VALID,0,VALID,68.4225,VALID,199.015,VALID,27.1751,VALID,198,VALID,0.440848,
2005-03-25, 10:47:00,VALID,917.485,VALID,0,VALID,68.7582,VALID,221.43,VALID,27.2035,VALID,218,VALID,0.977108,
2005-03-25, 10:48:00,VALID,917.459,VALID,0,VALID,69.3953,VALID,216.455,VALID,27.0005,VALID,191,VALID,1.11859,
2005-03-25, 10:49:00,VALID,917.446,VALID,0,VALID,70.8742,VALID,244.66,VALID,26.9006,VALID,219,VALID,1.03797,
2005-03-25, 10:50:00,VALID,917.439,VALID,0,VALID,70.6618,VALID,235.303,VALID,26.7159,VALID,241,VALID,1.78906,
2005-03-25, 10:51:00,VALID,917.429,VALID,0,VALID,70.6936,VALID,208.593,VALID,26.3794,VALID,221,VALID,1.45494,
2005-03-25, 10:52:00,VALID,917.404,VALID,0,VALID,71.7109,VALID,206.945,VALID,26.2575,VALID,231,VALID,1.18434,
2005-03-25, 10:53:00,VALID,917.389,VALID,0,VALID,72.8795,VALID,200.153,VALID,26.2582,VALID,171,VALID,0.758903,
2005-03-25, 10:54:00,VALID,917.378,VALID,0,VALID,74.4715,VALID,203.855,VALID,26.3038,VALID,159,VALID,1.02308,
2005-03-25, 10:55:00,VALID,917.374,VALID,0,VALID,74.1511,VALID,201.562,VALID,26.2928,VALID,359,VALID,0.905887,
2005-03-25, 10:56:00,VALID,917.374,VALID,0,VALID,75.2803,VALID,233.826,VALID,26.264,VALID,322,VALID,0.306141,
2005-03-25, 10:57:00,VALID,917.367,VALID,0,VALID,74.2083,VALID,221.345,VALID,26.3096,VALID,281,VALID,0.380035,
2005-03-25, 10:58:00,VALID,917.354,VALID,0,VALID,72.4624,VALID,628.478,VALID,26.2934,VALID,221,VALID,1.34989,
2005-03-25, 10:59:00,VALID,917.37,VALID,0,VALID,72.6709,VALID,965.122,VALID,26.3267,VALID,253,VALID,0.793988,
2005-03-25, 11:00:00,VALID,917.348,VALID,0,VALID,72.484,VALID,945.628,VALID,26.4648,VALID,281,VALID,0.601376,
2005-03-25, 11:01:00,VALID,917.339,VALID,0,VALID,72.5667,VALID,875.532,VALID,26.7266,VALID,250,VALID,0.977344,
2005-03-25, 11:02:00,VALID,917.335,VALID,0,VALID,72.5361,VALID,455.986,VALID,26.9177,VALID,230,VALID,0.637173,
2005-03-25, 11:03:00,VALID,917.34,VALID,0,VALID,71.735,VALID,826.016,VALID,27.2052,VALID,351,VALID,0.840298,
2005-03-25, 11:04:00,VALID,917.334,VALID,0,VALID,69.4207,VALID,819.835,VALID,27.4448,VALID,242,VALID,0.469512,
2005-03-25, 11:05:00,VALID,917.317,VALID,0,VALID,67.5896,VALID,642.113,VALID,27.5904,VALID,243,VALID,0.938045,
2005-03-25, 11:06:00,VALID,917.297,VALID,0,VALID,67.8299,VALID,841.859,VALID,27.6231,VALID,317,VALID,1.68676,
2005-03-25, 11:07:00,VALID,917.277,VALID,0,VALID,65.7343,VALID,951.351,VALID,27.3155,VALID,287,VALID,1.10993,
2005-03-25, 11:08:00,VALID,917.266,VALID,0,VALID,67.3175,VALID,944.712,VALID,27.3029,VALID,225,VALID,0.758539,
2005-03-25, 11:09:00,VALID,917.275,VALID,0,VALID,68.5179,VALID,941.095,VALID,27.4743,VALID,263,VALID,1.44792,
2005-03-25, 11:10:00,VALID,917.266,VALID,0,VALID,64.8061,VALID,922.093,VALID,27.3766,VALID,284,VALID,1.17667,
2005-03-25, 11:11:00,VALID,917.267,VALID,0,VALID,64.6102,VALID,907.523,VALID,27.309,VALID,252,VALID,1.45957,
2005-03-25, 11:12:00,VALID,917.249,VALID,0,VALID,66.482,VALID,906.997,VALID,27.1997,VALID,244,VALID,1.01504,
2005-03-25, 11:13:00,VALID,917.236,VALID,0,VALID,65.6733,VALID,904.891,VALID,27.134,VALID,242,VALID,2.17746,
2005-03-25, 11:14:00,VALID,917.245,VALID,0,VALID,68.4632,VALID,911.022,VALID,26.953,VALID,252,VALID,1.15495,
2005-03-25, 11:15:00,VALID,917.222,VALID,0,VALID,68.1364,VALID,906.556,VALID,27.1221,VALID,258,VALID,0.905506,
2005-03-25, 11:16:00,VALID,917.207,VALID,0,VALID,64.9955,VALID,893.514,VALID,27.3859,VALID,219,VALID,1.12749,
2005-03-25, 11:17:00,VALID,917.181,VALID,0,VALID,65.8246,VALID,874.564,VALID,27.5635,VALID,236,VALID,1.28925,
2005-03-25, 11:18:00,VALID,917.153,VALID,0,VALID,64.45,VALID,858.16,VALID,27.5516,VALID,284,VALID,1.13008,
2005-03-25, 11:19:00,VALID,917.122,VALID,0,VALID,64.2415,VALID,826.695,VALID,27.5121,VALID,329,VALID,1.03906,
2005-03-25, 11:20:00,VALID,917.107,VALID,0,VALID,65.6199,VALID,867.703,VALID,27.7003,VALID,232,VALID,0.461782,
2005-03-25, 11:21:00,VALID,917.087,VALID,0,VALID,64.6217,VALID,877.417,VALID,28.0551,VALID,231,VALID,1.00763,
2005-03-25, 11:22:00,VALID,917.07,VALID,0,VALID,62.5223,VALID,894.211,VALID,28.1661,VALID,218,VALID,1.09666,
2005-03-25, 11:23:00,VALID,917.065,VALID,0,VALID,62.8058,VALID,912.091,VALID,28.2775,VALID,239,VALID,1.0202,
2005-03-25, 11:24:00,VALID,917.054,VALID,0,VALID,63.8117,VALID,742.028,VALID,28.2552,VALID,266,VALID,1.02071,
2005-03-25, 11:25:00,VALID,917.059,VALID,0,VALID,61.1311,VALID,401.495,VALID,28.0964,VALID,263,VALID,1.14281,
2005-03-25, 11:26:00,VALID,917.047,VALID,0,VALID,63.7099,VALID,412.244,VALID,27.8448,VALID,229,VALID,0.767078,
2005-03-25, 11:27:00,VALID,917.046,VALID,0,VALID,63.1212,VALID,745.17,VALID,27.7058,VALID,243,VALID,1.61777,
2005-03-25, 11:28:00,VALID,917.036,VALID,0,VALID,64.8124,VALID,580.626,VALID,27.3698,VALID,253,VALID,1.84263,
2005-03-25, 11:29:00,VALID,917.025,VALID,0,VALID,66.0344,VALID,726.066,VALID,27.1072,VALID,246,VALID,2.09356,
2005-03-25, 11:30:00,VALID,917.025,VALID,0,VALID,65.246,VALID,747.089,VALID,26.8844,VALID,250,VALID,1.36181,
2005-03-25, 11:31:00,VALID,917.004,VALID,0,VALID,66.2112,VALID,875.786,VALID,26.9067,VALID,224,VALID,0.719308,
2005-03-25, 11:32:00,VALID,916.982,VALID,0,VALID,66.3231,VALID,970.37,VALID,27.0615,VALID,253,VALID,1.11328,
2005-03-25, 11:33:00,VALID,916.966,VALID,0,VALID,65.8297,VALID,911.022,VALID,27.1434,VALID,232,VALID,1.56582,
2005-03-25, 11:34:00,VALID,916.948,VALID,0,VALID,65.8081,VALID,698.897,VALID,27.3061,VALID,238,VALID,0.822088,
2005-03-25, 11:35:00,VALID,916.942,VALID,0,VALID,66.1489,VALID,1002.68,VALID,27.3162,VALID,251,VALID,1.7748,
2005-03-25, 11:36:00,VALID,916.941,VALID,0,VALID,66.2455,VALID,613.891,VALID,27.2835,VALID,237,VALID,1.15234,
2005-03-25, 11:37:00,VALID,916.933,VALID,0,VALID,66.6041,VALID,646.545,VALID,27.3255,VALID,231,VALID,1.20884,
2005-03-25, 11:38:00,VALID,916.918,VALID,0,VALID,65.3211,VALID,960.419,VALID,27.4355,VALID,256,VALID,0.549538,
2005-03-25, 11:39:00,VALID,916.897,VALID,0,VALID,65.8589,VALID,903.584,VALID,27.5871,VALID,245,VALID,0.756811,
2005-03-25, 11:40:00,VALID,916.87,VALID,0,VALID,67.718,VALID,696.995,VALID,27.8078,VALID,199,VALID,0.561942,
2005-03-25, 11:41:00,VALID,916.87,VALID,0,VALID,66.6143,VALID,488.895,VALID,28.1574,VALID,141,VALID,0.519985,
2005-03-25, 11:42:00,VALID,916.867,VALID,0,VALID,64.9854,VALID,1024.78,VALID,28.2502,VALID,252,VALID,0.678163,
2005-03-25, 11:43:00,VALID,916.856,VALID,0,VALID,65.4482,VALID,1012.84,VALID,28.3124,VALID,234,VALID,1.09952,
2005-03-25, 11:44:00,VALID,916.849,VALID,0,VALID,64.9548,VALID,819.036,VALID,28.2408,VALID,234,VALID,1.3212,
2005-03-25, 11:45:00,VALID,916.839,VALID,0,VALID,65.1316,VALID,704.127,VALID,28.1298,VALID,261,VALID,1.5959,
2005-03-25, 11:46:00,VALID,916.833,VALID,0,VALID,64.9459,VALID,815.029,VALID,27.8398,VALID,267,VALID,2.2311,
2005-03-25, 11:47:00,VALID,916.83,VALID,0,VALID,65.4215,VALID,851.181,VALID,27.4998,VALID,239,VALID,2.34448,
2005-03-25, 11:48:00,VALID,916.815,VALID,0,VALID,66.36,VALID,955.715,VALID,27.3546,VALID,255,VALID,1.75215,
2005-03-25, 11:49:00,VALID,916.791,VALID,0,VALID,66.3701,VALID,914.061,VALID,27.2511,VALID,247,VALID,2.49777,
2005-03-25, 11:50:00,VALID,916.788,VALID,0,VALID,66.758,VALID,932.893,VALID,27.1046,VALID,251,VALID,2.44029,
2005-03-25, 11:51:00,VALID,916.764,VALID,0,VALID,65.742,VALID,940.534,VALID,27.0367,VALID,242,VALID,1.98633,
2005-03-25, 11:52:00,VALID,916.741,VALID,0,VALID,66.3625,VALID,775.888,VALID,27.0432,VALID,254,VALID,2.03792,
2005-03-25, 11:53:00,VALID,916.718,VALID,0,VALID,66.3625,VALID,794.431,VALID,26.9911,VALID,246,VALID,2.41458,
2005-03-25, 11:54:00,VALID,916.707,VALID,0,VALID,66.4808,VALID,337.732,VALID,26.9041,VALID,240,VALID,1.59707,
2005-03-25, 11:55:00,VALID,916.691,VALID,0,VALID,67.9876,VALID,261.59,VALID,26.9788,VALID,230,VALID,1.02065,
2005-03-25, 11:56:00,VALID,916.67,VALID,0,VALID,68.7379,VALID,243.42,VALID,26.8686,VALID,248,VALID,1.70964,
2005-03-25, 11:57:00,VALID,916.661,VALID,0,VALID,69.7907,VALID,241.637,VALID,26.7496,VALID,225,VALID,0.623884,
2005-03-25, 11:58:00,VALID,916.674,VALID,0,VALID,71.3154,VALID,241.705,VALID,26.759,VALID,238,VALID,0.609197,
2005-03-25, 11:59:00,VALID,916.657,VALID,0,VALID,68.4988,VALID,250.297,VALID,26.7273,VALID,233,VALID,1.21076,
2005-03-25, 12:00:00,VALID,916.64,VALID,0,VALID,68.2,VALID,296.383,VALID,26.6982,VALID,232,VALID,0.931362,
2005-03-25, 12:01:00,VALID,916.623,VALID,0,VALID,67.7702,VALID,435.864,VALID,26.7047,VALID,234,VALID,1.52553,
2005-03-25, 12:02:00,VALID,916.596,VALID,0,VALID,67.0097,VALID,693.582,VALID,26.6303,VALID,213,VALID,2.47619,
2005-03-25, 12:03:00,VALID,916.578,VALID,0,VALID,67.596,VALID,860.011,VALID,26.7312,VALID,249,VALID,1.91749,
2005-03-25, 12:04:00,VALID,916.556,VALID,0,VALID,68.0219,VALID,1019.95,VALID,26.8286,VALID,246,VALID,1.617,
2005-03-25, 12:05:00,VALID,916.516,VALID,0,VALID,67.0848,VALID,1016.76,VALID,26.9411,VALID,255,VALID,2.06816,
2005-03-25, 12:06:00,VALID,916.485,VALID,0,VALID,66.9703,VALID,1004.57,VALID,27.0277,VALID,254,VALID,1.44207,
2005-03-25, 12:07:00,VALID,916.456,VALID,0,VALID,69.0163,VALID,1008.71,VALID,27.3611,VALID,289,VALID,1.12314,
2005-03-25, 12:08:00,VALID,916.408,VALID,0,VALID,63.8117,VALID,751.385,VALID,27.5106,VALID,240,VALID,2.24516,
2005-03-25, 12:09:00,VALID,916.397,VALID,0,VALID,64.9408,VALID,304.806,VALID,27.3938,VALID,241,VALID,1.59902,
2005-03-25, 12:10:00,VALID,916.335,VALID,0,VALID,64.6102,VALID,494.635,VALID,27.2774,VALID,219,VALID,1.4891,
2005-03-25, 12:11:00,VALID,916.295,VALID,0,VALID,65.4965,VALID,1081.32,VALID,27.3197,VALID,205,VALID,1.13608,
2005-03-25, 12:12:00,VALID,916.296,VALID,0,VALID,66.421,VALID,1076.84,VALID,27.6687,VALID,178,VALID,0.610328,
2005-03-25, 12:13:00,VALID,916.262,VALID,0,VALID,67.2615,VALID,1070.1,VALID,28.0694,VALID,354,VALID,1.26867,
2005-03-25, 12:14:00,VALID,916.226,VALID,0,VALID,66.1934,VALID,1058.43,VALID,28.4292,VALID,30,VALID,2.34691,
2005-03-25, 12:15:00,VALID,916.257,VALID,0,VALID,64.6484,VALID,1048.75,VALID,28.7466,VALID,2,VALID,1.7298,
2005-03-25, 12:16:00,VALID,916.235,VALID,0,VALID,60.9137,VALID,1029.04,VALID,28.8559,VALID,350,VALID,1.16974,
2005-03-25, 12:17:00,VALID,916.247,VALID,0,VALID,61.1337,VALID,1018.14,VALID,28.7725,VALID,284,VALID,0.836124,
2005-03-25, 12:18:00,VALID,916.237,VALID,0,VALID,62.4765,VALID,997.879,VALID,28.8951,VALID,275,VALID,0.970052,
2005-03-25, 12:19:00,VALID,916.234,VALID,0,VALID,60.7941,VALID,527.866,VALID,28.7879,VALID,281,VALID,1.43786,
2005-03-25, 12:20:00,VALID,916.219,VALID,0,VALID,61.744,VALID,511.548,VALID,28.2998,VALID,254,VALID,2.23983,
2005-03-25, 12:21:00,VALID,916.231,VALID,0,VALID,62.891,VALID,201.579,VALID,27.8656,VALID,260,VALID,1.54277,
2005-03-25, 12:22:00,VALID,916.23,VALID,0,VALID,64.6789,VALID,205.977,VALID,27.6719,VALID,254,VALID,0.6875,
2005-03-25, 12:23:00,VALID,916.232,VALID,0,VALID,65.4686,VALID,236.373,VALID,27.705,VALID,223,VALID,0.835565,
2005-03-25, 12:24:00,VALID,916.233,VALID,0,VALID,67.7155,VALID,233.86,VALID,27.7564,VALID,271,VALID,0.720656,
2005-03-25, 12:25:00,VALID,916.218,VALID,0,VALID,67.8681,VALID,239.99,VALID,27.8113,VALID,328,VALID,0.944633,
2005-03-25, 12:26:00,VALID,916.206,VALID,0,VALID,67.184,VALID,553.66,VALID,27.7696,VALID,346,VALID,0.607167,
2005-03-25, 12:27:00,VALID,916.189,VALID,0,VALID,65.9416,VALID,243.692,VALID,27.8735,VALID,296,VALID,0.415865,
2005-03-25, 12:28:00,VALID,916.182,VALID,0,VALID,63.0614,VALID,227.866,VALID,27.7179,VALID,265,VALID,0.709794,
2005-03-25, 12:29:00,VALID,916.154,VALID,0,VALID,65.26,VALID,294.77,VALID,27.5918,VALID,323,VALID,1.01258,
2005-03-25, 12:30:00,VALID,916.151,VALID,0,VALID,68.2381,VALID,618.357,VALID,27.5911,VALID,15,VALID,1.18025,
2005-03-25, 12:31:00,VALID,916.13,VALID,0,VALID,66.772,VALID,483.614,VALID,27.6683,VALID,18,VALID,0.985647,
2005-03-25, 12:32:00,VALID,916.123,VALID,0,VALID,64.3928,VALID,812.94,VALID,27.6877,VALID,334,VALID,0.952398,
2005-03-25, 12:33:00,VALID,916.105,VALID,0,VALID,66.7491,VALID,379.199,VALID,27.678,VALID,355,VALID,1.07626,
2005-03-25, 12:34:00,VALID,916.099,VALID,0,VALID,64.4055,VALID,283.24,VALID,27.737,VALID,329,VALID,1.01376,
2005-03-25, 12:35:00,VALID,916.09,VALID,0,VALID,65.2155,VALID,291.442,VALID,27.6335,VALID,13,VALID,1.10621,
2005-03-25, 12:36:00,VALID,916.099,VALID,0,VALID,69.0837,VALID,304.415,VALID,27.7208,VALID,16,VALID,1.01753,
2005-03-25, 12:37:00,VALID,916.108,VALID,0,VALID,69.9115,VALID,272.525,VALID,27.8627,VALID,16,VALID,1.15527,
2005-03-25, 12:38:00,VALID,916.107,VALID,0,VALID,71.6791,VALID,264.935,VALID,27.8825,VALID,27,VALID,1.70579,
2005-03-25, 12:39:00,VALID,916.118,VALID,0,VALID,70.1608,VALID,266.191,VALID,27.7729,VALID,14,VALID,1.24409,
2005-03-25, 12:40:00,VALID,916.092,VALID,0,VALID,70.7127,VALID,273.188,VALID,27.5591,VALID,354,VALID,0.780717,
2005-03-25, 12:41:00,VALID,916.062,VALID,0,VALID,68.6069,VALID,280.387,VALID,27.3068,VALID,6,VALID,0.429348,
2005-03-25, 12:42:00,VALID,916.048,VALID,0,VALID,72.0771,VALID,299.746,VALID,27.1875,VALID,4,VALID,0.540661,
2005-03-25, 12:43:00,VALID,916.022,VALID,0,VALID,71.9944,VALID,304.568,VALID,26.9964,VALID,359,VALID,0.997266,
2005-03-25, 12:44:00,VALID,916.008,VALID,0,VALID,78.1096,VALID,320.326,VALID,26.8512,VALID,22,VALID,0.575149,
2005-03-25, 12:45:00,VALID,916.008,VALID,0,VALID,77.648,VALID,334.336,VALID,26.8699,VALID,16,VALID,0.769804,
2005-03-25, 12:46:00,VALID,916.012,VALID,0,VALID,76.9219,VALID,332.315,VALID,26.8771,VALID,343,VALID,0.478871,
2005-03-25, 12:47:00,VALID,916.027,VALID,0,VALID,73.116,VALID,317.015,VALID,26.8199,VALID,321,VALID,0.391158,
2005-03-25, 12:48:00,VALID,916.018,VALID,0,VALID,73.0371,VALID,313.653,VALID,26.7642,VALID,307,VALID,0.286395,
2005-03-25, 12:49:00,VALID,916.006,VALID,0,VALID,71.791,VALID,317.966,VALID,26.7787,VALID,293,VALID,0.269431,
2005-03-25, 12:50:00,VALID,915.993,VALID,0,VALID,74.5847,VALID,313.279,VALID,26.8822,VALID,341,VALID,0.55957,
2005-03-25, 12:51:00,VALID,915.961,VALID,0,VALID,73.5394,VALID,311.564,VALID,26.9691,VALID,16,VALID,0.575581,
2005-03-25, 12:52:00,VALID,915.927,VALID,0,VALID,74.806,VALID,312.311,VALID,26.921,VALID,13,VALID,0.935404,
2005-03-25, 12:53:00,VALID,915.912,VALID,0,VALID,71.7744,VALID,315.572,VALID,26.8971,VALID,9,VALID,1.08003,
2005-03-25, 12:54:00,VALID,915.901,VALID,0,VALID,73.4428,VALID,319.325,VALID,26.8354,VALID,8,VALID,0.740663,
2005-03-25, 12:55:00,VALID,915.915,VALID,0,VALID,73.7518,VALID,337.256,VALID,26.8806,VALID,22,VALID,0.639266,
2005-03-25, 12:56:00,VALID,915.915,VALID,0,VALID,74.8746,VALID,696.961,VALID,27.0627,VALID,14,VALID,0.817264,
2005-03-25, 12:57:00,VALID,915.915,VALID,0,VALID,71.5316,VALID,1132.94,VALID,27.3848,VALID,9,VALID,0.670603,
2005-03-25, 12:58:00,VALID,915.923,VALID,0,VALID,68.7391,VALID,1150.18,VALID,27.7057,VALID,290,VALID,0.344581,
2005-03-25, 12:59:00,VALID,915.916,VALID,0,VALID,66.8381,VALID,1158.92,VALID,27.9217,VALID,224,VALID,0.675698,
2005-03-25, 13:00:00,VALID,915.903,VALID,0,VALID,63.2026,VALID,1150.26,VALID,28.0615,VALID,244,VALID,1.1181,
2005-03-25, 13:01:00,VALID,915.902,VALID,0,VALID,65.1443,VALID,1137.87,VALID,28.1546,VALID,265,VALID,0.76416,
2005-03-25, 13:02:00,VALID,915.91,VALID,0,VALID,63.1606,VALID,1146.29,VALID,28.4227,VALID,263,VALID,0.393821,
2005-03-25, 13:03:00,VALID,915.903,VALID,0,VALID,62.2272,VALID,1145.66,VALID,28.7146,VALID,267,VALID,0.811967,
2005-03-25, 13:04:00,VALID,915.907,VALID,0,VALID,62.2005,VALID,1137.72,VALID,28.954,VALID,231,VALID,0.669876,
2005-03-25, 13:05:00,VALID,915.89,VALID,0,VALID,61.8572,VALID,1139.02,VALID,29.2093,VALID,292,VALID,1.17862,
2005-03-25, 13:06:00,VALID,915.885,VALID,0,VALID,61.5393,VALID,1133.91,VALID,29.3574,VALID,278,VALID,0.925409,
2005-03-25, 13:07:00,VALID,915.867,VALID,0,VALID,58.5637,VALID,1158.92,VALID,29.5005,VALID,264,VALID,0.983613,
2005-03-25, 13:08:00,VALID,915.851,VALID,0,VALID,59.019,VALID,1170.79,VALID,29.5835,VALID,353,VALID,0.474276,
2005-03-25, 13:09:00,VALID,915.849,VALID,0,VALID,62.1967,VALID,801.478,VALID,29.9525,VALID,17,VALID,1.82051,
2005-03-25, 13:10:00,VALID,915.834,VALID,0,VALID,62.4154,VALID,451.86,VALID,29.9852,VALID,1,VALID,1.65387,
2005-03-25, 13:11:00,VALID,915.829,VALID,0,VALID,63.1225,VALID,392.597,VALID,29.7,VALID,13,VALID,2.38449,
2005-03-25, 13:12:00,VALID,915.804,VALID,0,VALID,63.9986,VALID,360.384,VALID,29.2988,VALID,20,VALID,2.31214,
2005-03-25, 13:13:00,VALID,915.797,VALID,0,VALID,62.7931,VALID,355.052,VALID,29.077,VALID,18,VALID,1.84034,
2005-03-25, 13:14:00,VALID,915.779,VALID,0,VALID,63.991,VALID,366.582,VALID,28.77,VALID,7,VALID,1.31641,
2005-03-25, 13:15:00,VALID,915.74,VALID,0,VALID,65.2206,VALID,376.329,VALID,28.5431,VALID,343,VALID,0.975991,
2005-03-25, 13:16:00,VALID,915.732,VALID,0,VALID,67.0492,VALID,387.299,VALID,28.5036,VALID,359,VALID,0.980859,
2005-03-25, 13:17:00,VALID,915.698,VALID,0,VALID,66.8597,VALID,399.576,VALID,28.4418,VALID,18,VALID,1.54688,
2005-03-25, 13:18:00,VALID,915.67,VALID,0,VALID,67.7498,VALID,385.312,VALID,28.3835,VALID,10,VALID,0.831577,
2005-03-25, 13:19:00,VALID,915.672,VALID,0,VALID,66.8839,VALID,347.852,VALID,28.3871,VALID,3,VALID,0.944949,
2005-03-25, 13:20:00,VALID,915.662,VALID,0,VALID,67.0848,VALID,318.238,VALID,28.3875,VALID,9,VALID,0.799352,
2005-03-25, 13:21:00,VALID,915.68,VALID,0,VALID,66.8686,VALID,296.315,VALID,28.4648,VALID,24,VALID,1.27168,
2005-03-25, 13:22:00,VALID,915.686,VALID,0,VALID,67.7829,VALID,281.355,VALID,28.5068,VALID,27,VALID,1.41079,
2005-03-25, 13:23:00,VALID,915.679,VALID,0,VALID,67.2615,VALID,267.737,VALID,28.5654,VALID,26,VALID,1.31922,
2005-03-25, 13:24:00,VALID,915.693,VALID,0,VALID,65.0883,VALID,257.701,VALID,28.6132,VALID,14,VALID,0.955078,
2005-03-25, 13:25:00,VALID,915.689,VALID,0,VALID,63.8333,VALID,247.445,VALID,28.5359,VALID,7,VALID,1.01319,
2005-03-25, 13:26:00,VALID,915.698,VALID,0,VALID,63.7201,VALID,242.962,VALID,28.426,VALID,17,VALID,0.90625,
2005-03-25, 13:27:00,VALID,915.684,VALID,0,VALID,64.7094,VALID,241.128,VALID,28.1859,VALID,3,VALID,1.74619,
2005-03-25, 13:28:00,VALID,915.683,VALID,0,VALID,66.4452,VALID,241.128,VALID,27.9042,VALID,8,VALID,1.62378,
2005-03-25, 13:29:00,VALID,915.666,VALID,0,VALID,65.2575,VALID,244.201,VALID,27.7661,VALID,2,VALID,0.58647,
2005-03-25, 13:30:00,VALID,915.644,VALID,0,VALID,67.2285,VALID,249.465,VALID,27.6756,VALID,37,VALID,0.803735,
2005-03-25, 13:31:00,VALID,915.633,VALID,0,VALID,68.0486,VALID,270.59,VALID,27.6523,VALID,3,VALID,0.649132,
2005-03-25, 13:32:00,VALID,915.623,VALID,0,VALID,66.6219,VALID,258.329,VALID,27.6659,VALID,324,VALID,0.515278,
2005-03-25, 13:33:00,VALID,915.595,VALID,0,VALID,68.303,VALID,257.158,VALID,27.7597,VALID,21,VALID,1.46447,
2005-03-25, 13:34:00,VALID,915.581,VALID,0,VALID,69.2872,VALID,256.037,VALID,27.6939,VALID,358,VALID,1.57745,
2005-03-25, 13:35:00,VALID,915.587,VALID,0,VALID,67.774,VALID,259.229,VALID,27.4581,VALID,6,VALID,2.05508,
2005-03-25, 13:36:00,VALID,915.549,VALID,0,VALID,71.042,VALID,265.971,VALID,27.1969,VALID,15,VALID,3.02517,